Temp
56 51 47 53 55 57 57 55 55 60 66 62 61 64 69 73 73 74 76 77 78 78 82 82 81 81 82 81 80 80 78 76 76 76 76 76 75 73 76 77 76 75 74 75
50 45 54 56 56 53 53 51 51 58 61 60 62 62 68 68 69 72 73 74 75 77 78 80 79 80 81 80 79 79 78 75 74 77 76 78 76 75 77 77 76 76 75 75
46 51 56 53 52 50 51 49 51 52 57 61 58 56 60 68 70 72 74 74 74 74 75 77 79 80 81 80 79 80 78 75 74 75 75 74 74 74 74 74 75 75 75 76
49 56 51 51 49 53 46 56 54 53 51 47 59 46 59 65 66 69 71 72 72 74 76 77 79 80 80 81 82 80 76 74 74 74 75 74 78 76 77 76 77 76 76 76
47 49 49 49 50 55 49 57 55 54 51 51 52 47 55 64 62 66 70 70 73 76 78 79 80 81 81 82 80 79 75 74 74 73 75 76 76 76 77 76 74 74 74 75
50 57 53 53 56 56 58 54 53 53 51 40 49 48 52 59 63 67 71 74 75 76 78 78 79 79 78 81 78 75 73 73 73 74 74 74 72 73 74 75 75 75 75 75
46 47 54 56 50 55 53 48 38 35 36 36 52 47 53 64 66 66 69 71 74 76 77 77 77 79 79 77 75 74 73 72 73 74 74 74 73 74 73 74 76 73 74 74
32 31 46 52 51 49 49 48 41 31 35 40 50 43 54 65 69 71 72 71 73 75 77 76 77 78 79 76 73 74 73 72 74 74 74 75 74 77 77 76 76 75 75 75
35 33 47 51 53 54 49 43 54 43 44 42 47 52 61 65 65 70 69 71 71 72 73 73 74 76 75 73 72 74 74 73 74 74 74 73 74 74 74 73 73 74 73 74
42 34 44 46 52 54 51 56 42 45 34 34 44 46 52 58 63 65 65 66 69 71 73 72 71 72 73 73 73 74 74 74 74 74 74 74 74 74 74 74 72 72 72 73
45 40 41 46 40 42 48 46 47 48 47 39 40 47 60 61 62 61 64 67 70 71 72 70 68 66 71 74 74 73 74 73 73 74 74 73 74 74 74 74 73 73 72 72
45 39 35 40 50 51 49 46 45 40 40 45 44 45 62 63 62 63 63 67 71 71 72 68 65 64 69 72 73 73 73 74 74 75 74 73 74 74 72 72 72 73 72 73
45 39 32 38 44 47 44 46 47 46 45 40 40 45 63 64 64 64 63 67 70 71 73 68 64 64 66 71 73 73 74 74 75 75 74 72 72 72 71 72 72 73 72 72
47 40 36 31 37 41 38 43 45 44 39 42 43 47 56 59 59 61 63 65 69 71 72 70 64 65 66 72 73 73 74 74 74 75 74 72 72 72 72 72 72 72 73 73
43 36 40 41 41 41 40 40 42 41 44 39 45 47 53 57 57 60 62 66 68 70 72 72 66 65 68 71 72 74 74 74 74 74 74 72 72 72 72 72 72 72 72 74
43 35 40 37 42 41 38 42 43 43 44 44 45 45 56 58 60 62 63 65 66 68 71 73 70 67 69 71 72 72 73 73 75 74 74 73 73 72 72 71 71 71 72 73
36 37 34 31 40 39 34 42 44 45 48 48 42 50 57 56 58 60 61 62 63 65 68 71 71 71 71 72 73 72 73 74 74 75 74 74 73 72 72 72 71 71 70 70
35 35 35 31 35 24 42 47 46 44 47 51 51 53 56 58 61 61 62 63 63 66 69 71 73 72 73 74 74 74 74 74 75 75 75 74 74 73 72 72 71 69 69 69
37 34 30 28 30 37 41 36 36 35 37 50 51 54 57 59 59 58 66 65 63 64 68 72 75 74 73 74 74 74 74 75 75 75 75 75 75 73 72 71 69 69 68 67
37 34 32 31 26 24 34 39 40 38 32 48 48 51 54 54 43 57 62 61 62 66 70 73 74 74 73 74 74 73 74 74 74 76 76 77 76 74 72 71 69 69 69 69
35 33 29 30 29 35 40 40 39 31 34 41 47 47 48 46 50 56 59 60 63 66 69 75 74 73 73 74 74 73 74 73 77 78 78 77 76 74 73 70 70 69 68 68
33 32 33 32 30 28 42 39 33 37 41 43 47 48 46 51 54 57 60 60 63 66 70 74 73 73 74 74 74 73 72 76 78 78 78 77 74 74 72 68 69 69 68 67
34 37 33 32 33 41 44 42 44 44 43 46 47 48 50 50 53 55 59 61 63 66 70 75 74 73 72 74 76 73 74 77 77 76 76 74 73 73 72 68 68 68 68 68
44 46 38 40 42 44 45 48 48 48 48 48 49 49 51 50 53 53 59 63 65 68 71 73 74 72 71 74 76 77 77 77 77 75 75 74 73 71 72 72 69 69 68 66
45 45 44 43 47 48 51 49 48 48 49 49 50 50 51 51 51 53 56 60 66 70 71 70 73 73 73 75 76 77 77 76 74 75 74 73 74 72 71 72 70 70 71 65
48 45 41 39 48 45 48 50 50 47 47 49 48 49 54 53 52 54 58 62 67 69 70 68 69 73 74 75 75 75 77 76 75 73 74 74 74 73 72 67 62 43 47 46
MSLP
1010.48 1009.99 1007.56 1007.25 1007.80 1006.92 1006.04 1005.24 1004.19 1003.79 1003.79 1003.77 1003.01 1001.09 1001.06 1001.48 1001.17 1000.78 1000.20 999.86 999.88 1000.07 1000.23 1000.48 1000.66 1000.63 1000.71 1000.69 1000.59 1000.62 1000.58 1000.91 1001.34 1001.78 1002.11 1002.39 1002.68 1003.52 1004.13 1004.57 1004.96 1005.59 1006.09 1006.63
1010.18 1008.72 1008.14 1008.43 1007.86 1007.24 1006.72 1005.82 1005.12 1004.55 1004.36 1003.96 1002.76 1001.33 1001.28 1001.54 1000.91 1000.39 1000.16 999.92 999.79 999.88 1000.09 1000.09 1000.04 1000.11 1000.00 999.97 999.77 999.92 999.97 1000.46 1000.86 1001.20 1001.50 1001.72 1002.32 1003.24 1003.68 1004.36 1004.62 1005.19 1005.71 1006.35
1009.09 1008.23 1008.19 1007.98 1007.42 1006.86 1006.32 1005.84 1005.64 1005.32 1004.90 1004.09 1003.52 1001.77 1001.32 1000.94 1000.75 1000.41 999.98 999.89 999.83 999.87 999.84 999.56 999.33 999.18 999.18 999.23 999.21 999.36 999.42 999.97 1000.40 1000.77 1001.33 1001.74 1002.33 1003.01 1003.57 1003.94 1004.23 1005.03 1005.46 1005.98
1008.67 1007.78 1007.66 1007.26 1006.57 1006.54 1005.83 1006.09 1005.98 1005.71 1005.50 1003.82 1003.74 1000.94 1000.33 1000.03 999.71 999.64 999.54 999.34 999.16 999.26 999.23 998.93 998.47 998.29 998.44 998.35 998.71 998.82 999.13 999.63 1000.06 1000.55 1000.69 1000.92 1000.96 1001.88 1002.54 1003.12 1003.81 1004.65 1005.30 1005.93
1007.65 1007.60 1007.13 1006.28 1006.26 1006.14 1005.66 1005.93 1005.70 1005.51 1005.08 1004.70 1003.68 1002.77 998.87 1000.01 998.95 998.83 998.90 998.82 998.72 998.36 998.00 997.54 997.35 997.46 997.66 997.87 998.10 998.34 998.91 999.34 999.82 1000.20 1000.39 1000.72 1001.02 1001.80 1002.44 1003.16 1003.86 1004.28 1005.35 1005.92
1008.31 1007.84 1007.51 1006.55 1005.91 1005.90 1005.65 1005.76 1005.99 1005.81 1005.30 1004.05 1003.34 1003.13 997.96 998.65 998.02 998.11 998.04 998.09 997.81 997.64 997.23 997.03 996.93 997.06 997.11 997.31 997.70 998.15 998.58 999.09 999.71 1000.09 1000.46 1000.64 1000.91 1001.67 1002.44 1003.28 1003.65 1004.44 1005.23 1005.82
1008.03 1007.42 1007.34 1006.83 1006.22 1005.80 1005.53 1005.11 1005.15 1005.31 1004.60 1002.93 1003.04 1002.69 998.33 997.68 998.05 998.03 997.66 997.96 997.67 997.41 996.89 996.75 996.42 996.35 996.34 996.72 997.33 997.86 998.37 998.95 999.60 1000.02 1000.53 1000.78 1001.09 1001.63 1002.44 1003.15 1003.57 1004.30 1004.95 1005.46
1009.03 1007.64 1007.19 1006.98 1006.16 1005.15 1004.96 1004.68 1003.68 1003.24 1002.67 1002.51 1003.05 1000.44 998.33 998.12 997.73 997.66 997.80 997.95 997.70 997.28 996.72 996.45 996.07 995.84 995.82 996.33 997.08 997.58 998.08 998.84 999.58 1000.07 1000.60 1001.01 1001.39 1001.92 1002.56 1003.05 1003.62 1004.25 1004.72 1005.27
1009.73 1008.84 1008.21 1007.12 1006.35 1005.35 1004.71 1004.47 1004.07 1003.55 1003.05 1002.14 1001.00 999.47 998.58 998.22 997.84 997.53 997.67 997.80 997.48 996.90 996.29 995.98 995.60 995.46 995.69 996.29 996.86 997.37 998.05 998.86 999.53 1000.13 1000.78 1001.25 1001.75 1002.22 1002.73 1003.48 1004.06 1004.52 1004.98 1005.46
1010.27 1009.11 1008.08 1007.56 1006.30 1005.10 1004.80 1004.16 1004.27 1003.79 1002.39 1001.15 999.95 999.06 997.59 997.34 997.46 998.09 998.08 998.17 997.81 997.08 996.50 996.29 995.97 995.77 996.01 996.40 996.92 997.59 998.17 998.77 999.63 1000.23 1000.87 1001.51 1001.97 1002.49 1003.10 1003.64 1004.11 1004.71 1005.20 1005.49
1010.59 1009.89 1008.35 1007.67 1007.09 1005.92 1005.10 1004.53 1004.11 1003.53 1002.69 1001.09 999.52 998.29 997.66 997.23 998.08 998.53 998.56 998.48 997.76 997.27 996.80 996.61 996.74 996.78 996.62 996.79 997.16 997.80 998.54 999.20 999.84 1000.45 1001.20 1001.67 1002.17 1002.73 1003.36 1003.81 1004.39 1004.81 1005.21 1005.54
1010.87 1010.24 1008.71 1007.66 1006.73 1006.59 1006.24 1005.55 1005.29 1004.01 1003.04 1002.15 1000.98 999.24 998.36 998.23 998.61 998.76 998.72 998.25 997.77 997.42 996.93 997.15 997.35 997.46 997.36 997.32 997.61 998.15 998.83 999.33 1000.01 1000.71 1001.37 1001.94 1002.59 1003.10 1003.67 1004.04 1004.48 1004.86 1005.16 1005.62
1010.98 1010.29 1008.89 1007.24 1007.17 1007.03 1006.54 1006.22 1005.77 1005.23 1004.41 1002.45 1001.21 999.25 998.58 998.46 998.50 999.04 998.74 998.21 997.71 997.16 996.91 997.30 997.69 997.86 997.84 997.74 998.08 998.53 999.00 999.56 1000.20 1000.83 1001.54 1002.32 1002.91 1003.35 1003.82 1004.13 1004.57 1004.88 1005.28 1005.61
1011.48 1010.57 1009.88 1008.76 1007.93 1007.95 1007.36 1006.69 1006.25 1005.69 1004.20 1002.84 1001.29 1000.77 998.98 998.91 999.14 998.76 998.64 998.38 997.77 997.32 996.97 997.22 997.72 997.90 998.06 998.11 998.43 998.92 999.35 999.81 1000.39 1000.91 1001.64 1002.38 1003.02 1003.46 1003.83 1004.24 1004.66 1004.95 1005.30 1005.57
1011.77 1010.31 1009.78 1009.10 1008.61 1008.15 1007.58 1006.87 1006.22 1005.42 1004.49 1003.43 1002.10 1001.27 1000.26 999.98 999.97 999.54 999.10 998.32 997.60 997.08 996.89 997.00 997.54 997.88 998.00 998.24 998.59 999.10 999.68 999.99 1000.43 1001.02 1001.68 1002.47 1003.11 1003.55 1003.94 1004.38 1004.73 1005.09 1005.39 1005.50
1011.40 1010.33 1009.73 1008.66 1008.38 1007.70 1006.95 1006.30 1005.74 1004.95 1004.19 1003.22 1002.60 1001.80 1001.59 1000.41 1000.22 999.53 999.16 998.53 997.65 997.09 996.85 996.59 996.97 997.51 997.68 998.03 998.51 999.06 999.72 1000.19 1000.50 1001.10 1001.74 1002.58 1003.12 1003.61 1004.07 1004.46 1004.75 1005.15 1005.30 1005.49
1011.62 1010.66 1009.98 1008.43 1007.90 1007.29 1006.10 1004.84 1004.54 1003.99 1003.45 1002.69 1001.82 1001.64 1001.30 999.57 999.70 999.49 999.11 998.59 997.82 997.25 996.65 996.12 996.30 996.81 997.19 997.65 998.28 998.96 999.58 1000.40 1000.66 1001.17 1001.87 1002.55 1003.15 1003.59 1004.09 1004.49 1004.84 1005.09 1005.22 1005.48
1011.48 1011.07 1010.53 1008.97 1008.20 1006.87 1005.12 1005.31 1005.32 1004.65 1003.46 1002.53 1001.66 1001.49 1000.90 999.88 999.38 999.41 998.95 998.39 997.69 997.07 996.24 995.67 995.65 996.22 996.83 997.41 998.18 998.90 999.60 1000.26 1000.73 1001.21 1001.78 1002.47 1003.09 1003.52 1004.05 1004.52 1004.87 1005.20 1005.39 1005.67
1010.82 1010.82 1010.10 1009.12 1007.68 1006.26 1005.62 1006.56 1006.71 1006.15 1004.01 1002.72 1001.41 1000.86 1000.72 1000.21 999.66 998.74 998.15 997.98 997.72 997.13 996.16 995.45 995.32 995.86 996.57 997.24 997.97 998.78 999.47 1000.09 1000.70 1001.13 1001.68 1002.34 1002.97 1003.48 1003.99 1004.40 1004.81 1005.27 1005.66 1006.20
1010.29 1010.60 1010.27 1009.12 1007.99 1006.93 1006.66 1007.06 1007.27 1006.81 1004.66 1003.27 1002.55 1001.89 1001.09 1000.76 1000.06 997.95 998.31 998.12 997.25 996.72 995.83 995.08 995.22 995.67 996.34 996.98 997.79 998.63 999.29 999.94 1000.52 1001.00 1001.57 1002.18 1002.80 1003.37 1003.86 1004.42 1004.89 1005.32 1005.79 1006.20
1009.62 1009.66 1009.48 1008.72 1008.07 1007.13 1007.14 1007.11 1007.01 1006.66 1005.94 1004.48 1003.42 1002.83 1002.18 1001.30 1000.42 999.66 999.15 997.92 997.23 996.18 995.47 994.69 995.02 995.42 996.11 996.80 997.45 998.30 999.16 999.75 1000.42 1000.96 1001.54 1002.11 1002.76 1003.32 1003.93 1004.47 1004.96 1005.45 1005.89 1006.35
1009.46 1009.02 1008.60 1008.34 1007.64 1007.25 1007.32 1007.17 1007.26 1006.54 1005.29 1004.51 1003.61 1003.09 1002.54 1001.67 1000.71 999.73 998.57 997.54 996.53 995.44 994.55 994.35 994.76 995.28 996.03 996.64 997.18 998.04 998.90 999.60 1000.31 1000.94 1001.41 1001.98 1002.79 1003.34 1003.97 1004.42 1005.07 1005.58 1005.96 1006.44
1009.03 1009.11 1008.82 1008.56 1007.95 1007.68 1007.16 1006.60 1006.36 1005.80 1005.05 1004.08 1003.68 1003.09 1002.44 1001.65 1000.55 999.65 998.23 997.15 996.07 994.99 994.29 994.23 994.54 995.22 995.94 996.43 996.91 997.76 998.63 999.50 1000.22 1000.88 1001.38 1002.07 1002.79 1003.34 1003.87 1004.51 1005.11 1005.63 1006.07 1006.20
1008.55 1008.28 1008.08 1007.51 1007.11 1006.67 1006.38 1006.10 1005.65 1005.10 1004.39 1003.74 1003.41 1002.98 1002.22 1001.24 1000.23 999.28 998.11 996.81 995.72 994.59 994.10 994.30 994.60 995.11 995.69 996.25 996.80 997.56 998.52 999.45 1000.05 1000.68 1001.31 1002.04 1002.60 1003.26 1003.88 1004.54 1005.28 1005.58 1005.84 1006.26
1008.32 1007.97 1007.23 1006.66 1006.11 1005.74 1005.28 1005.39 1005.09 1004.53 1003.85 1003.25 1002.81 1002.35 1001.68 1000.87 999.70 999.03 997.93 996.51 995.15 994.07 994.11 994.50 994.46 995.01 995.56 996.10 996.84 997.57 998.36 999.28 999.95 1000.51 1001.16 1001.83 1002.46 1003.12 1003.87 1004.63 1005.48 1005.64 1005.66 1006.09
1007.70 1007.18 1006.97 1006.45 1006.00 1005.85 1005.17 1004.88 1004.41 1004.03 1003.48 1002.98 1002.67 1001.95 1001.09 1000.29 999.33 998.60 997.24 995.93 994.90 994.46 994.63 994.96 995.11 995.20 995.77 996.24 996.91 997.63 998.20 999.01 999.64 1000.27 1000.91 1001.48 1002.22 1002.97 1003.60 1004.76 1005.85 1006.32 1006.31 1006.47
Wind_Speed
5 10 22 23 21 24 12 16 23 17 13 14 23 30 26 21 22 24 24 22 19 19 17 13 11 11 11 11 9 6 7 5 6 6 7 7 7 7 7 8 11 11 10 11
6 18 17 14 15 20 24 21 11 9 5 9 19 26 19 13 18 19 20 21 21 19 16 15 14 13 13 12 11 9 6 5 8 7 5 3 6 6 7 7 9 10 11 12
14 13 8 16 19 18 20 25 20 9 4 10 11 20 21 17 19 20 20 20 19 18 17 16 16 16 14 12 12 9 5 7 9 10 7 6 8 6 6 7 7 9 11 12
11 14 14 17 19 20 21 14 18 18 11 13 4 13 17 16 18 18 17 17 18 17 18 20 19 18 15 15 10 7 4 8 10 13 9 12 7 8 5 7 7 8 10 10
16 9 10 18 15 15 17 7 11 11 16 15 19 13 20 16 21 23 20 18 17 22 22 22 21 19 18 13 10 6 6 8 9 11 10 10 8 6 7 7 11 8 8 9
18 14 8 8 11 14 10 18 18 10 9 15 17 13 19 18 21 20 15 14 16 16 17 19 19 16 15 10 7 6 8 9 11 10 10 11 13 11 10 9 9 7 6 6
9 18 16 12 12 6 10 12 10 12 12 17 11 13 20 10 10 7 5 9 13 13 13 13 14 13 12 8 7 7 10 11 11 11 11 11 13 13 13 12 9 9 7 6
4 5 6 3 13 13 14 14 9 17 13 14 13 15 10 17 18 16 13 7 10 11 11 12 13 11 9 8 8 10 12 13 13 12 12 11 12 8 8 8 8 6 6 6
6 3 9 6 9 13 10 12 14 5 1 8 11 22 17 14 11 8 5 7 15 17 16 17 15 10 6 8 11 12 14 14 13 13 10 10 10 10 9 9 8 7 6 6
5 7 5 9 9 5 6 6 10 6 7 10 9 17 9 3 12 2 8 12 16 18 17 16 11 5 6 9 11 13 15 15 15 13 11 10 10 10 10 9 9 8 7 7
7 4 2 4 5 6 4 7 4 6 10 7 6 4 5 17 7 7 8 12 18 17 17 14 9 2 6 10 13 14 14 16 14 13 12 12 10 10 9 8 7 7 7 7
4 6 7 7 5 4 9 6 3 7 18 12 8 5 7 10 8 12 14 18 19 15 16 11 7 1 6 11 13 14 14 14 14 13 13 12 10 9 8 7 7 7 7 7
7 1 7 7 6 5 1 4 4 6 6 15 15 8 8 5 13 13 18 19 19 18 16 8 4 3 7 10 12 14 14 15 15 14 13 11 10 9 8 8 7 7 8 8
10 6 9 9 8 9 11 11 10 8 10 14 19 19 25 20 21 22 21 19 19 17 15 8 1 4 8 11 12 13 14 15 14 14 13 11 9 8 8 8 7 7 8 8
7 10 11 14 17 18 18 19 18 18 17 15 15 19 22 19 18 20 19 20 20 18 16 9 5 8 11 12 13 14 14 14 14 13 12 10 9 8 8 8 7 7 8 8
3 6 10 17 15 18 19 19 19 21 21 23 22 23 21 24 23 22 19 20 19 18 17 13 8 12 14 14 14 15 14 13 14 13 11 10 9 9 8 8 7 8 8 7
5 5 4 7 6 7 12 18 21 19 18 17 22 18 18 25 21 19 17 19 20 20 18 15 11 14 14 15 15 16 15 13 13 12 11 10 10 9 8 8 7 8 8 7
5 6 4 6 5 6 2 7 7 14 19 19 21 21 18 19 19 16 21 20 21 19 18 16 10 14 15 16 16 15 15 13 13 12 12 10 9 9 9 8 8 7 6 6
13 5 4 4 6 9 6 4 3 5 9 14 10 12 15 16 17 22 20 8 12 16 17 15 11 14 15 16 16 16 16 14 13 13 12 11 10 9 9 9 8 7 7 7
8 7 3 5 5 4 0 2 9 6 7 3 5 5 9 6 7 14 10 20 18 16 14 11 12 15 16 17 17 17 16 15 14 13 12 11 10 9 9 8 8 6 7 7
4 2 7 10 6 6 5 12 8 4 5 15 7 6 9 6 8 17 21 21 17 17 14 9 13 15 16 18 18 17 16 15 14 12 11 10 10 9 9 9 7 7 7 7
4 5 2 3 3 3 5 7 4 6 13 14 8 7 9 12 15 15 17 17 17 17 10 12 13 15 16 18 18 17 16 15 13 12 12 10 9 7 8 9 8 7 8 8
3 3 4 2 3 8 13 8 11 14 13 9 10 8 12 14 13 14 15 16 15 13 9 13 13 15 15 17 17 17 15 14 13 12 11 9 9 8 9 9 9 7 7 7
4 3 3 9 3 11 7 9 10 13 13 9 7 10 13 15 14 14 15 13 11 9 10 12 14 15 15 16 16 16 15 14 13 13 11 9 9 9 8 7 6 6 6 6
4 7 9 7 8 14 6 13 13 14 12 8 7 10 12 13 12 14 16 13 8 6 10 11 13 13 15 15 15 14 14 14 12 12 10 10 7 8 8 6 4 5 6 6
3 4 5 6 14 9 15 15 17 12 13 6 9 12 12 10 13 15 10 7 3 5 9 8 8 11 12 14 14 14 14 15 13 11 10 9 8 8 7 7 5 9 5 5
Wind_Direction
210 223 220 223 229 248 260 265 245 259 229 208 221 244 250 246 259 261 269 276 276 278 286 288 274 263 265 261 257 251 292 272 193 181 182 191 193 186 192 192 187 186 193 195
219 235 252 250 250 244 246 255 267 254 246 237 245 250 253 250 256 258 265 270 275 280 279 277 272 270 264 270 276 279 274 225 200 200 185 158 149 184 182 189 176 182 185 188
239 265 251 247 239 244 236 241 240 251 296 249 274 266 254 245 248 253 257 263 265 264 272 272 271 271 275 269 267 272 276 217 197 189 158 122 122 123 166 174 164 183 180 182
245 254 237 237 238 229 241 235 240 239 253 244 201 277 259 252 252 251 259 262 260 268 257 256 263 263 253 259 268 273 231 200 190 182 181 172 166 159 171 164 165 168 172 177
242 275 231 225 234 226 235 206 202 215 227 243 239 264 260 253 256 257 255 256 266 262 261 264 261 261 262 262 260 253 191 177 179 182 183 170 153 130 139 145 154 141 156 170
258 252 281 289 213 218 226 214 237 251 247 236 231 233 268 247 258 262 264 260 272 278 277 271 264 261 257 257 237 195 173 164 168 172 169 162 141 138 139 149 142 148 157 162
268 238 242 254 256 219 212 189 188 213 215 237 212 220 246 265 266 271 224 323 305 287 288 278 269 258 247 222 193 173 167 158 162 157 157 147 138 141 150 159 155 154 154 164
327 263 180 336 230 241 213 200 208 219 214 229 208 229 240 230 267 273 266 314 329 327 328 304 295 270 249 207 182 168 161 151 155 150 141 138 135 146 153 154 155 157 166 166
312 235 285 285 317 229 193 212 224 282 136 228 195 243 270 257 275 255 292 329 351 342 341 331 318 285 226 178 167 160 152 146 145 140 135 133 137 143 143 142 147 148 142 146
303 296 163 294 329 191 249 216 192 210 207 208 204 240 233 198 207 27 35 4 342 346 346 342 336 284 177 159 153 152 148 142 140 136 134 138 138 136 134 136 133 143 145 147
328 272 294 285 193 283 242 233 249 249 240 249 243 211 218 223 94 47 14 351 352 346 348 352 347 3 160 152 149 144 140 138 135 134 133 131 128 126 127 133 141 146 146 152
328 298 288 272 272 264 252 288 260 257 213 240 284 282 113 118 70 8 351 346 344 344 350 351 341 48 162 154 146 146 143 138 136 132 131 128 131 132 134 140 140 145 144 160
353 316 309 309 159 131 206 195 237 256 262 250 241 227 184 256 324 342 335 338 336 337 344 346 332 170 157 152 149 147 147 141 138 138 134 136 137 141 143 140 138 145 153 158
313 260 255 268 298 307 292 290 284 272 251 247 243 259 270 285 310 320 329 330 326 325 339 328 261 184 164 160 153 153 148 143 142 139 142 140 145 145 142 141 147 154 159 158
271 256 251 254 265 276 276 277 277 261 255 252 263 253 266 287 299 311 314 314 315 318 323 316 222 193 171 168 160 156 153 147 145 144 144 144 143 140 140 147 153 154 165 159
248 264 251 267 266 259 266 263 261 257 257 256 259 262 270 278 280 281 296 300 303 307 312 316 219 197 178 174 167 157 154 151 148 146 147 145 146 146 150 151 154 165 161 155
219 238 239 263 284 301 274 253 245 255 256 257 257 264 261 267 272 277 294 294 295 297 298 303 232 199 185 173 167 162 155 155 153 154 149 151 153 156 155 154 159 159 159 159
255 210 241 279 273 242 95 53 315 282 271 274 256 254 254 265 274 292 280 285 286 290 291 296 216 196 182 168 167 158 154 159 161 160 159 155 160 157 155 161 152 141 151 140
217 221 230 251 221 286 291 70 322 325 296 301 261 236 247 260 293 281 274 306 304 297 290 286 213 188 173 167 160 160 161 162 166 166 166 164 166 162 162 159 145 134 142 138
207 227 248 218 263 286 270 301 332 299 256 26 340 270 271 292 276 270 338 323 313 301 288 257 196 179 169 166 160 161 165 167 174 173 173 173 172 173 160 150 144 137 147 142
287 216 215 247 258 258 23 323 336 227 18 313 311 321 314 301 262 301 301 300 302 293 286 217 183 176 173 163 160 165 168 175 178 178 176 177 177 172 153 143 143 148 147 138
316 318 341 281 287 348 312 336 325 274 289 297 300 302 310 301 290 291 296 297 300 294 275 190 180 176 169 167 163 165 173 175 178 178 179 175 167 163 153 142 146 151 147 140
302 348 324 263 298 291 295 269 256 270 280 298 296 294 304 304 304 307 304 302 294 288 240 192 179 169 168 169 169 169 173 174 175 178 176 168 161 156 152 147 150 155 162 158
278 276 278 316 205 306 346 320 323 318 308 295 285 291 301 309 312 310 311 300 294 272 201 184 171 168 164 171 170 177 166 174 177 180 178 165 160 156 155 153 156 160 175 147
276 317 323 295 307 323 327 348 322 316 310 299 318 310 305 311 319 311 296 297 296 214 166 174 172 166 168 168 171 171 169 172 177 175 173 172 155 168 153 151 153 172 183 153
222 306 338 320 318 318 317 328 323 321 313 344 324 307 324 331 318 302 302 314 357 128 144 152 151 157 165 169 175 173 168 176 173 172 173 172 165 165 157 155 141 43 45 124